www.pogodaiklimat.ru

Погода и климат >> Архив погоды >> Россия >> Дагестан >> Дербент


ПОГОДА в Дербенте

АРХИВ ПОГОДЫ в Дербенте

Время (UTC), дата Ветер
(напр.,м/с)
 
Видим.   Явления Облачность Т
(С)
Тd
(С)
f
(%)
Тe
(С)
Тes
(С)
Комфортность P
(гПа)
Po
(гПа)
Тmin
(С)
Tmax
(С)
R
(мм)
R24
(мм)
S
(см)
09 13.08 В 3 20 км ясно +30.8 +19.0 49 +36 +50 очень
душно
1009.3 1011.3
12 13.08 В 3 20 км ясно +30.7 +21.1 57 +38 +46 очень
душно
1009.0 1011.0
15 13.08 ЮВ 2 20 км ясно +28.4 +20.8 63 +35 +36 очень
душно
1008.6 1010.6 +31.4
18 13.08 ЮЗ 1 10 км ясно +26.6 +20.3 68 +33 +33 очень
душно
1008.8 1010.8
21 13.08 З 1 10 км ясно +25.2 +17.8 64 +30 +30 душно 1009.0 1011.1
00 14.08 З 1 10 км ясно +24.4 +18.2 68 +29 +29 душно 1008.3 1010.4
03 14.08 СЗ 1 20 км ясно +25.1 +18.0 65 +29 +30 душно 1008.5 1010.6 +23.9
06 14.08 СВ 2 20 км ясно +30.4 +22.7 63 +40 +51 опасность
солнечного
удара
1009.0 1011.0
09 14.08 С 2 20 км ясно +31.0 +23.4 64 +42 +59 опасность
перегрева
1009.2 1011.2
12 14.08 С 2 20 км 8/5 600 м
[Cu med, cong Ac cuf Ci fib]
+29.9 +22.2 63 +39 +42 очень
душно
1009.3 1011.3
15 14.08 С 3 20 км 9/8 300 м
[Cb cap Ac cast]
+28.3 +20.7 63 +35 +35 очень
душно
1009.6 1011.6 +31.7
18 14.08 СЗ 1 10 км 8/8 300 м
[Cb cap]
+27.4 +21.2 69 +35 +35 очень
душно
1010.9 1012.9
21 14.08 СЗ 1 10 км 8/8 600 м
[Sc]
+26.8 +20.8 70 +34 +34 очень
душно
1011.0 1013.0
00 15.08 СЗ 2 10 км 8/0
[Ac trans]
+26.1 +20.2 70 +32 +32 очень
душно
1010.8 1012.8
03 15.08 СЗ 2 20 км 8/0
[Ac trans Ci fib]
+25.7 +20.2 72 +32 +32 очень
душно
1011.3 1013.4 +25.4
06 15.08 С 3 20 км 5/0
[Ac trans Ci fib]
+30.5 +21.5 59 +39 +44 очень
душно
1011.9 1013.9
09 15.08 СВ 3 20 км 3/0
[Ac trans]
+30.7 +20.3 54 +37 +49 очень
душно
1011.7 1013.7
12 15.08 С 2 20 км 9/9 600 м
[Sc]
+29.0 +18.8 54 +34 +35 очень
душно
1012.2 1014.3
15 15.08 СЗ 3 20 км {ливн. осадки} 9/6 300 м
[Cb cap Ac trans]
+24.7 +18.5 68 +29 +29 душно 1013.7 1015.8 +31.3 0.3
18 15.08 СЗ 3-12
{13}
10 км {ливн. осадки} 8/3 600 м
[Sc Ac trans]
+23.4 +13.7 54 +27 +27 душно 1014.8 1016.9
21 15.08 СЗ 3 10 км 5/3 600 м
[Sc Ac trans]
+24.4 +12.4 47 +26 +26 жарко 1014.0 1016.1
00 16.08 СЗ 3 10 км 9/9 600 м
[Sc]
+20.7 +10.9 53 +23 +23 комфорт 1013.3 1015.4
03 16.08 З 2 20 км 9/6 600 м
[Sc Ac trans]
+24.9 +6.7 31 +25 +25 комфорт 1013.1 1015.2 +20.6
06 16.08 СЗ 2 20 км 8/0
[Ac trans Ci fib]
+28.8 +10.7 32 +29 +36 жарко 1013.6 1015.7
09 16.08 С 3 20 км 9/4 600 м
[Sc Ac trans]
+28.9 +17.5 50 +33 +37 очень
душно
1013.0 1015.0
12 16.08 С 2 20 км 9/3 600 м
[Sc Ac trans Ci fib]
+28.8 +20.2 60 +35 +39 очень
душно
1012.8 1014.9
15 16.08 СВ 1 20 км 8/0
[Ac trans Ci fib]
+26.6 +20.2 68 +33 +33 очень
душно
1012.7 1014.8 +30.5
18 16.08 Ю 1 10 км 3/0
[Ac trans]
+25.5 +19.1 68 +31 +31 очень
душно
1013.8 1015.9
21 16.08 СЗ 1 10 км ясно +24.0 +16.4 62 +27 +27 жарко 1013.1 1015.2
00 17.08 З 1 10 км 3/0
[Ac trans]
+23.7 +16.0 62 +27 +27 жарко 1012.2 1014.2
03 17.08 З 1 20 км 5/0
[Ac trans Ci fib]
+23.7 +16.7 65 +27 +28 жарко 1012.7 1014.8 +22.7
06 17.08 ЮВ 2 20 км 8/8 600 м
[Sc]
+27.8 +15.9 48 +31 +33 душно 1013.2 1015.3
09 17.08 В 1 20 км 9/9 600 м
[Sc]
+29.6 +19.1 53 +35 +37 очень
душно
1012.9 1014.9
12 17.08 СВ 1 20 км 8/5 300 м
[Cb cap Ac cuf Ci sp]
+29.3 +21.2 62 +37 +41 очень
душно
1012.3 1014.4
15 17.08 ЮВ 3 20 км 8/4 600 м
[Sc Ac cuf Ci fib]
+27.6 +20.4 65 +34 +34 очень
душно
1012.5 1014.5 +30.2
18 17.08 ЮВ 2 10 км 8/0
[Ac trans]
+26.5 +20.2 68 +33 +33 очень
душно
1012.6 1014.7
21 17.08 ЮЗ 1 10 км 8/0
[Ac trans]
+26.0 +20.6 72 +32 +32 очень
душно
1012.2 1014.3
00 18.08 З 1 10 км 6/3 600 м
[Sc Ac trans]
+24.4 +19.8 76 +30 +30 очень
душно
1011.6 1013.6
03 18.08 штиль 0 20 км 9/9 300 м
[Cb cap]
+24.8 +20.4 77 +31 +31 очень
душно
1011.6 1013.7 +24.1
06 18.08 штиль 0 20 км 9/9 600 м
[Sc]
+26.8 +20.0 66 +33 +34 очень
душно
1012.1 1014.2
09 18.08 С 2 20 км 9/5 600 м
[Cu Sc Ac cuf Ci sp]
+31.7 +18.6 46 +37 +42 очень
душно
1012.7 1014.7
12 18.08 С 3 20 км 8/0
[Ac cuf Ci sp]
+30.4 +21.8 60 +39 +43 очень
душно
1012.5 1014.6
15 18.08 С 2 20 км 8/6 600 м
[Sc Ac cuf]
+27.7 +20.7 66 +35 +35 очень
душно
1013.9 1016.0 +31.9
18 18.08 СВ 6 10 км 9/9 600 м
[Cb cap]
+27.0 +18.8 61 +32 +32 очень
душно
1015.9 1018.0
21 18.08 ЮЗ 1 10 км 9/9 600 м
[Sc]
+26.3 +17.8 60 +31 +31 душно 1016.0 1018.0
00 19.08 З 1 10 км 8/0
[Ac trans]
+23.6 +16.3 64 +27 +27 жарко 1015.4 1017.5
03 19.08 штиль 0 20 км 8/6 600 м
[Sc Ac trans]
+24.5 +17.2 64 +28 +29 душно 1016.1 1018.2 +23.3
06 19.08 В 2 20 км 3/0
[Ac trans]
+29.3 +18.9 54 +35 +43 очень
душно
1016.6 1018.7
09 19.08 В 3 20 км ясно +30.7 +21.3 57 +38 +52 опасность
солнечного
удара
1016.0 1018.0
12 19.08 В 3 20 км 4/0
[Ac trans]
+30.3 +18.9 51 +36 +41 очень
душно
1016.3 1018.3
15 19.08 ЮВ 2 20 км 4/0
[Ac trans]
+27.7 +20.0 63 +34 +34 очень
душно
1016.3 1018.3 +30.9
18 19.08 Ю 1 10 км ясно +26.1 +20.5 71 +32 +32 очень
душно
1016.9 1019.0
21 19.08 З 1 10 км ясно +23.8 +17.1 66 +28 +28 душно 1015.7 1017.7
00 20.08 ЮЗ 1 10 км 5/0
[Ac trans]
+23.2 +18.4 74 +29 +29 душно 1016.4 1018.5
03 20.08 Ю 2 20 км 8/6 600 м
[Sc Ac trans]
+25.0 +17.8 64 +29 +29 душно 1015.4 1017.5 +23.1
06 20.08 ЮВ 3 20 км 8/0
[Ac trans]
+28.4 +17.4 51 +32 +37 душно 1015.7 1017.7

 

Местоположение метеостанции Дербент (Дагестан, Россия): широта 42.07 долгота 48.30 высота над уровнем моря -17 м.

В архиве по умолчанию представлена погода в Дербенте за последнюю неделю. Архивные данные за месяц целиком и за предыдущие месяцы, начиная с января 2011 года, Вы можете получить, выбрав интересующий диапазон дат из раскрывающегося списка и нажав кнопку "Ввод!".

Внимание! Время в таблицах - всемирное. Для получения местного времени необходимо прибавить поправку, которая в Дербенте равна 3 ч.

Смотрите также архив погоды в соседних городах и на ближайших метеорологических станциях:

Погода в Касумкенте (Дагестан, Россия) (46 км)
Погода в Изберге (Дагестан, Россия) (60 км)
Погода в Сергокале (Дагестан, Россия) (67 км)
Погода в Губе (Азербайджан) (80 км)
Погода в Ахты (Дагестан, Россия) (81 км)
Погода в Кумухе (Дагестан, Россия) (98 км)
Погода в Куппе (Дагестан, Россия) (107 км)
Погода в Гунибе (Дагестан, Россия) (116 км)
Погода в Махачкале (Дагестан, Россия) (125 км)
Погода в Габале (Азербайджан) (126 км)

Пояснения к столбцам:

Ветер - указаны скорость ветра в м/с - средняя за 10 мин, порывы в срок и между сроками (в фигурных скобках) и направление, откуда дует ветер: С - северный, СВ - северо-восточный, В - восточный, ЮВ - юго-восточный, Ю - южный, ЮЗ - юго-западный, З - западный, СЗ - северо-западный.
Видимость - горизонтальная дальность видимости в метрах или километрах. При видимости от 1 до 10 км при отсутствии осадков обычно наблюдается дымка, при ухудшении видимости до 1 км и менее - туман. В сухую погоду видимость может ухудшаться дымом, пылью или мглою.
Явления - указаны атмосферные явления, наблюдавшиеся в срок или в последний час перед сроком; фигурными скобками обозначены явления, наблюдавшиеся между сроками (за 1-3 часа до срока); квадратными скобками обозначены град или гололедные отложения с указанием их диаметра в мм.
Облачность - указаны через наклонную черту общая и нижняя облачность в баллах и высота нижней границы облаков в метрах; квадратными скобками обозначены формы облаков: Ci - перистые, Cs - перисто-слоистые, Cc - перисто-кучевые, Ac - высококучевые, As - высокослоистые, Sc - слоисто-кучевые, Ns - слоисто-дождевые, Cu - кучевые, Cb - кучево-дождевые. Подробнее классификацию облаков см. в Атласе облаков (PDF).
T - Температура воздуха - температура, измеренная на высоте 2 м над землей.
Td - Температура точки росы - температура, при понижении до которой содержащийся в воздухе водяной пар достигнет насыщения.
f - Относительная влажность воздуха - влажноcть воздуха, измеренная на высоте 2 м над землей.
Te - Эффективная температура - температура, которую ощущает одетый по сезону человек в тени. Характеристика душности погоды. При расчете учитывается влияние влажности воздуха и скорости ветра на теплоощущения человека.
Tes - Эффективная температура на солнце - температура, которую ощущает человек, с поправкой на солнечный нагрев. Характеристика знойности погоды. Зависит от высоты солнца над горизонтом, облачности и скорости ветра. Ночью, в пасмурную погоду, а также при ветре 12 м/с и более поправка равна нулю.
P - Атмосферное давление - приведенное к уровню моря атмосферное давление.
Po - Атмосферное давление - измеренное на уровне метеостанции атмосферное давление.
Tmin - Минимальная температура - минимум температуры воздуха на высоте 2 м над землей.
Tmax - Максимальная температура - максимум температуры воздуха на высоте 2 м над землей.
R - Количество осадков - Количество выпавших осадков за период времени, мм. При наведении курсора мыши на число - период времени, за который выпало указанное количество осадков.
R24 - Количество осадков - Количество выпавших осадков за 24 часа, мм.
S - Снежный покров - Высота снежного покрова, см. При наведении курсора мыши на число - состояние снежного покрова и степень покрытия местности в баллах.